DMSP 5D-2 F13 DEB, 40611

Orbit data source: Space-Track

DMSP 5D-2 F13 DEB, 40611 is space debris in SSO originally from a launch on Fri, 24 Mar 1995 UTC launched from the Air Force Western Test Range (AFWTR). Debris objects in space refer to the collection of defunct objects orbiting the Earth. Examples of debris include non-operational satellites, rocket bodies, and fragments generated from explosions, collisions, or faulty payload assembly.

Loading next visibility...
Identifier
40611, 1995-015FJ
Orbit
SSO
Country
Flag of USUS
Related business
Manufacturer
Unknown
Mission
Spacecraft
Bus & Motor
Unknown
Mass
Unknown
Launch date (UTC)
1995-03-24 (31 years ago)
Launch vehicle
Unknown
Launch site
Air Force Western Test Range (AFWTR)
Object type
Payload
Rocket body
Debris
Shape & HBR
Unknown shape, 0.1 m
Radar Cross Section
Small (<0.1 m²)

Expand to show TLE details & history
Last TLE update: 4 hours ago

TLE from 4 hours ago
0 DMSP 5D-2 F13 DEB
1 40611U 95015FJ  25304.83800763  .00006797  00000-0  23759-2 0  9998
2 40611  98.7880 333.2792 0029632  87.4579 272.9997 14.35267814545689
Epoch: 2025-10-31T20:06Z
TLE epoch observation values (Epoch: 2025-10-31T20:06:43.859Z)
Latitude
-0.00004°
Longitude
-8.78024°
Altitude
776.063 km
Speed
7.467 km/s
True Right ascension
22h 13m 07s
True Declination
0° 00' 00"
Sunlit
Object was in daylight at epoch
Visualization orbit readout
Latitude
Unknown
Longitude
Unknown
Altitude
Unknown
Speed
Unknown
Apparent Right ascension
Unknown
Apparent Declination
Unknown
Sunlit
N/A
Visualization observer readout
Local Sidereal Time
19:51:21
Azimuth
Unknown
Elevation
Unknown
Doppler factor
Unknown
Orbital elements
Apogee altitude
792.504 km
Perigee altitude
750.133 km
Semi-major axis
7,149.456 km
Eccentricity
0.00296
Inclination
98.788°
RAAN
333.2792°
Arg. of periapsis
87.4579°
True anomaly
272.66054°
Mean anomaly
272.9997°
Eccentric anomaly
272.83013°
Mean motion
3.59032 °/min
Orbital period
100.27 mins
BSTAR
0.0023759

Documentation

Showing up to 5 results
|